STARLINK-4207 (52871 NORAD) Tracking and Keplerian Element Data

This shows tracking and keplerian element data for the satellite.

Feedback or suggestion? Click here.




ElementValue
Catalog52871
NameSTARLINK-4207
Epoch Orbit1642
Epoch Day270.25001157
Epoch Year2022
RAAN267.9661
Inclination53.2119
Eccentricity0.0002215
Argument of Perigee51.2039
Mean Anonmoly177.1262
Mean Motion15.08886633
Decay Rate-0.00033088
L11 52871U 22062AT 22270.25001157 -.00033088 00000+0 -20677-2 0 9996
L22 52871 53.2119 267.9661 0002215 51.2039 177.1262 15.08886633 16420

Live tracking and technical data element details for STARLINK-4207 (NORAD 52871). STARLINK-4207 can be tracked NOW for your location showing map with azimuth and elevation plus other details from your city location.

Track the satellite on the map from your city or location and see movement details for azimuth, elevation, latitude, longitude, range, height, and movement on the map or in text.







IsCatalogInMostPopularTable: catalog: 52871, numindb: 5
Update: records affected: 1



GetName: 52871 STARLINK-4207

Hit Count: updated at: Thu, 06 Oct 2022 03:19:45 GMT